Location: Summit Observatory
(39.5293°N, 75.7290°W)
Time: 15:43:42
(UTC-05:00)

XW-2F - Pass Details

Date: 26 October 2019
Orbit: 502 x 524 km, 97.5° (Epoch: 13 November)

Event Time Altitude Azimuth Distance (km) Brightness Sun altitude
Rises 19:13:56 0° 202° (SSW) 2,609 ? -13.1°
Reaches altitude 10° 19:16:33 10° 221° (SW) 1,725 ? -13.6°
Maximum altitude 19:19:08 18° 266° (W) 1,302 ? -14.1°
Drops below altitude 10° 19:21:44 10° 310° (NW) 1,727 ? -14.6°
Sets 19:24:21 0° 330° (NNW) 2,614 ? -15.2°
